Volver al catálogo

STARLINK-34334

ActivoComunicacionesVLEO
NORAD 64273·PAYLOAD·🇺🇸 United States

Lanzado Jun 4, 2025 desde Vandenberg Space Force Base

Loading…

Próximos Pases (próximas 24 horas)

TLE

ActualizadoSource: CelesTrak SupGP

Época: Sep 15, 2026, 02:21 UTC

1 64273C 25120T   26258.09840278  .00045894  00000+0  13560-2 0  2587
2 64273  53.1575 314.6086 0001257  93.0387  61.8701 15.34366063    14

Sigue STARLINK-34334 en tiempo real con AllMySat

Download on the App Store